Regional Weather Roundup
Issued by NWS

Home | Current Version | Previous Version | Graphics & Text | Print | Product List | Glossary On
Versions: 1 2 3 4 5 6 7 8 9 10 11 12 13 14 15 16 17 18 19 20 21 22 23 24 25 26 27
000
ASUS45 KPSR 291110
RWRAZ

ARIZONA HOURLY REGIONAL WEATHER ROUNDUP
NATIONAL WEATHER SERVICE PHOENIX AZ
400 AM MST MON AUG 29 2016

NOTE: FAIR INDICATES FEW OR NO CLOUDS BELOW 12,000 FEET WITH NO
SIGNIFICANT WEATHER AND/OR OBSTRUCTIONS TO VISIBILITY.

AZZ001>003-036-291200-
NORTHWEST ARIZONA

CITY           SKY/WX    TMP DP  RH WIND       PRES   REMARKS
BULLHEAD CITY  CLEAR     81  54  39 CALM      29.90S
KINGMAN        CLEAR     63  54  72 CALM      30.10F
$$

AZZ004>008-015-016-018-291200-
NORTH CENTRAL ARIZONA

CITY           SKY/WX    TMP DP  RH WIND       PRES   REMARKS
GRAND CANYON   CLEAR     47  43  86 CALM      30.33S
PRESCOTT       CLEAR     56  50  80 S8        30.22S
FLAGSTAFF      CLEAR     42  41  96 CALM      30.34S
PAYSON         CLEAR     61  41  48 N5        30.23F
PAGE           CLEAR     66  46  48 CALM      30.16S
$$

AZZ009>014-017-291200-
NORTHEAST ARIZONA

CITY           SKY/WX    TMP DP  RH WIND       PRES   REMARKS
WINSLOW        CLEAR     53  49  86 CALM      30.23R
SAINT JOHNS    CLEAR     49  44  83 CALM      30.25S
SHOW LOW       CLEAR     45  39  81 CALM      30.29S
$$

AZZ023-291200-
GREATER PHOENIX AREA

CITY           SKY/WX    TMP DP  RH WIND       PRES   REMARKS
PHOENIX        CLEAR     83  52  34 E9        29.89S
BUCKEYE        CLEAR     77  46  33 CALM      29.91S
LUKE AFB       CLEAR     77  55  46 N2        29.89S
DEER VALLEY    CLEAR     81  47  30 NE8       29.92S
SCOTTSDALE     CLEAR     83  45  26 CALM      29.93F
MESA-GATEWAY   CLEAR     73  48  40 CALM      29.93S
$$

AZZ027-028-291200-
SOUTHWEST MARICOPA COUNTY AND PINAL COUNTY

CITY           SKY/WX    TMP DP  RH WIND       PRES   REMARKS
CASA GRANDE    CLEAR     73  45  35 CALM      29.94S
GILA BEND      FAIR      80  44  27 SE6       29.87S
$$

AZZ503-504-507>509-291200-
SOUTHEAST ARIZONA

CITY           SKY/WX    TMP DP  RH WIND       PRES   REMARKS
TUCSON         CLEAR     70  43  37 SE6       30.02F
DAVIS-MONTHAN  CLEAR     67  45  44 SE6       30.00F
NOGALES        CLEAR     59  41  51 CALM      30.09S
SIERRA VISTA   CLEAR     65  38  37 S3        30.15S
DOUGLAS        CLEAR     61  41  47 N5        30.10S
SAFFORD        CLEAR     69  42  37 CALM      30.04R
$$

AZZ020-021-025-026-031-291200-
SOUTHWEST ARIZONA

CITY           SKY/WX    TMP DP  RH WIND       PRES   REMARKS
YUMA           CLEAR     82  46  28 CALM      29.83S
$$

CAZ031-033-041-043-047-048-061-291200-
SOUTHERN CALIFORNIA

CITY           SKY/WX    TMP DP  RH WIND       PRES   REMARKS
DOWNTOWN L.A.  CLEAR     66  60  81 CALM      29.95F
L.A. AIRPORT   CLEAR     67  60  78 N3        29.96F
SAN DIEGO      MOCLDY    69  63  81 N3        29.97F
BURBANK        CLEAR     67  55  65 CALM      29.96F
ONTARIO        CLEAR     68  55  63 CALM      29.97F
RIVERSIDE      CLEAR     67  55  65 SE3       29.97F
PALM SPRINGS   CLEAR     83  54  36 CALM      29.88F
EL CENTRO NAS  CLEAR     81  47  30 NW8       29.83F
IMPERIAL       CLEAR     82  51  34 W6        29.81F
BLYTHE         CLEAR     84  51  31 SW6       29.85S
NEEDLES        CLEAR     83  59  44 NE12G117  29.90S
$$

NVZ020-UTZ003-291200-
SOUTHERN NEVADA-UTAH

CITY           SKY/WX    TMP DP  RH WIND       PRES   REMARKS
LAS VEGAS      CLEAR     80  46  30 W3        29.98S
SALT LAKE CITY CLEAR     65  38  36 SE9       30.18S
$$

NMZ009-TXZ055-291200-
NEW MEXICO-WEST TEXAS

CITY           SKY/WX    TMP DP  RH WIND       PRES   REMARKS
ALBUQUERQUE    CLOUDY    62  43  49 N7        30.25R
EL PASO        MOCLDY    70  59  68 NE6       30.12S
$$


........................KEY........................
SKY/WX - SKY CONDITION/WEATHER
TMP    - TEMPERATURE IN FAHRENHEIT
DP     - DEW POINT IN FAHRENHEIT
RH     - RELATIVE HUMIDITY IN PERCENT
WIND   - DIRECTION AND SPEED IN MILES PER HOUR (MPH)
VRB    - VARIABLE WIND DIRECTION
PRES   - MEAN SEA LEVEL PRESSURE IN INCHES OF MERCURY
         F - FALLING PRESSURE   R - RISING PRESSURE
         S - STEADY PRESSURE
VSB    - VISIBILITY IN MILES
HX     - HEAT INDEX IN FAHRENHEIT
WCI    - WIND CHILL INDEX IN FAHRENHEIT
TC     - TEMPERATURE IN CELSIUS WHICH IS ALSO KNOWN AS
         TEMPERATURE IN CENTIGRADE
AFB    - AIR FORCE BASE
         LUKE AFB IS LUKE AIR FORCE BASE
         DAVIS-MONTHAN IS DAVIS-MONTHAN AIR FORCE BASE
NAS    - NAVAL AIR STATION
         EL CENTRO NAS IS EL CENTRO NAVAL AIR STATION
N/A    - NOT AVAILABLE





USA.gov is the U.S. government's official web portal to all federal, state and local government web resources and services.